Retour au catalogue

LKW-3

ActifScienceSSO
NORAD 43146·PAYLOAD·🇨🇳 China

Lancé Jan 13, 2018 depuis Jiuquan Satellite Launch Center

Loading…

Prochains Passages (prochaines 24 heures)

TLE

FraisSource: Space-Track

Époque: Sep 14, 2026, 15:04 UTC

1 43146U 18006A   26257.62792116  .00005696  00000-0  16097-3 0  9991
2 43146  97.6707  61.8602 0003049  12.6348 347.4971 15.36772068482441

Suivez LKW-3 en temps réel avec AllMySat

Download on the App Store